Wind_Speed
5 5 5 5 5 6 6 7 7 7 8 8 9 9 9 9 10 10 10 10 10 10 10 11 10 10 10 10 9 10 10 10 10 10 10 11 12 12 12 11 11 11 11
5 6 6 6 6 6 7 7 8 8 9 9 10 10 11 10 10 10 10 11 10 11 11 11 11 10 10 10 10 10 10 10 11 11 11 12 12 13 12 12 12 12 12
5 6 7 7 8 8 8 8 9 9 9 10 10 11 11 11 11 11 11 11 11 11 11 12 12 11 12 12 11 11 12 11 11 12 12 12 11 12 11 12 12 12 12
6 7 7 8 9 9 10 10 10 10 10 10 10 10 11 11 11 11 12 12 12 13 13 13 13 13 13 13 12 12 13 12 12 12 13 12 12 12 12 11 12 12 13
7 7 8 8 9 9 10 10 11 11 11 11 11 11 12 12 12 12 12 13 13 14 14 14 14 14 14 14 14 14 14 14 14 13 13 13 14 14 14 13 12 13 12
7 8 8 9 10 10 10 11 11 11 11 11 11 12 13 12 12 13 13 14 14 14 15 15 15 15 15 15 15 15 14 14 14 14 14 14 15 15 15 15 13 13 13
8 8 8 9 10 10 11 11 11 11 11 11 12 12 13 12 13 12 13 14 15 15 15 16 17 17 16 16 15 15 16 16 16 15 15 15 15 15 15 15 15 15 15
9 9 8 9 10 10 11 12 11 11 12 13 13 13 13 13 13 14 14 15 15 15 15 15 15 16 16 17 17 17 17 17 16 16 16 16 15 16 15 16 16 17 16
9 9 9 9 10 10 12 12 12 12 12 13 13 13 13 14 13 14 14 15 15 15 16 16 17 17 16 17 18 18 18 18 17 17 17 17 17 17 17 17 17 17 17
10 10 10 10 10 11 12 12 11 12 12 12 12 13 14 14 15 15 15 15 15 16 16 17 18 18 18 18 19 19 18 18 18 18 18 18 18 18 17 17 17 18 18
10 11 10 10 11 11 12 12 12 12 12 13 13 14 14 15 16 16 16 17 17 17 17 18 18 19 19 19 19 19 19 18 18 17 19 19 19 19 19 18 18 19 19
12 11 11 11 11 12 12 12 12 13 13 14 14 14 15 16 17 17 17 17 18 18 18 18 19 19 19 20 20 20 20 19 19 19 19 19 20 20 20 20 20 20 20
13 13 12 12 12 13 12 12 12 13 13 14 14 15 15 15 15 16 16 17 18 18 18 19 19 19 20 20 20 20 20 20 21 20 20 21 21 21 22 21 21 21 21
14 13 13 13 13 13 14 14 14 14 14 14 14 15 16 16 15 15 16 17 17 17 17 18 19 19 19 20 21 21 20 21 22 22 22 22 22 22 22 23 23 23 23
14 14 14 14 14 14 14 14 15 15 14 15 16 16 16 16 17 16 16 16 17 17 18 18 18 19 19 19 20 21 21 21 22 23 23 22 22 22 23 24 24 24 25
15 15 14 14 14 14 14 15 15 15 15 15 16 16 16 16 17 16 16 17 18 18 18 19 19 18 19 19 20 21 20 21 23 23 22 23 23 23 24 24 25 25 25
15 15 15 15 15 15 15 15 15 15 15 15 15 16 16 16 16 17 17 17 18 19 20 20 19 19 19 20 20 20 21 21 22 22 22 22 23 23 24 25 26 26 26
15 15 15 15 16 16 16 16 16 16 15 15 15 16 15 15 15 16 17 18 19 20 19 19 19 20 20 20 21 21 22 22 22 22 23 22 23 24 24 25 25 26 27
17 17 16 16 16 16 16 16 16 16 15 15 15 15 16 16 17 17 18 18 19 19 20 20 20 21 21 21 21 22 24 24 24 24 24 23 24 24 24 25 26 27 27
18 18 17 17 17 17 16 16 16 16 16 16 16 16 16 17 17 18 19 20 20 20 21 21 21 21 22 22 22 22 23 24 25 25 25 26 25 25 26 26 27 27 28
18 18 17 17 17 18 17 17 17 17 17 16 16 17 18 18 19 19 20 20 21 21 21 21 21 21 21 22 22 22 23 23 25 26 26 26 26 26 26 26 26 27 28
19 18 19 19 19 19 19 18 18 18 18 18 18 18 18 19 20 20 21 22 22 22 22 22 22 22 22 22 23 23 23 24 24 24 25 25 26 26 26 26 27 27 28
20 20 20 20 20 20 21 20 19 19 19 19 19 19 19 20 20 20 21 22 22 22 23 23 23 22 22 22 22 23 24 25 24 25 25 25 26 26 27 27 27 27 27
21 21 20 21 21 22 22 22 22 21 20 20 20 20 20 20 20 20 21 22 22 22 23 24 24 23 23 23 23 24 24 25 25 26 26 26 27 27 27 27 27 27 27
21 21 21 21 22 22 23 22 23 22 22 21 21 21 21 21 21 21 21 21 22 22 22 22 22 22 23 23 23 23 24 24 25 25 26 26 26 26 27 27 27 27 28
21 21 21 22 23 23 23 23 23 23 22 22 22 22 22 22 22 22 21 21 21 21 21 22 22 23 23 22 22 22 22 23 24 24 25 25 25 26 26 27 27 28 28
Wind_Direction
301 290 287 284 279 279 273 262 259 262 258 258 254 247 247 246 244 239 238 239 236 235 235 236 237 239 235 238 244 249 248 249 251 253 250 250 250 252 254 254 252 250 252
298 289 286 289 287 284 277 269 266 265 266 261 255 249 247 245 245 244 245 246 243 238 237 236 237 238 241 246 248 250 249 250 254 251 253 255 257 256 255 255 255 256 254
299 290 289 288 284 279 275 272 268 263 264 261 257 252 246 246 247 245 247 247 244 240 237 236 239 241 246 250 251 250 253 254 252 250 252 254 256 255 257 256 254 254 253
302 294 291 290 285 277 275 275 271 266 263 259 255 252 250 250 250 250 249 248 247 243 239 240 242 243 246 250 253 252 253 253 254 252 252 253 252 252 253 254 253 252 250
305 297 292 289 286 283 279 277 274 269 262 257 256 256 255 253 250 251 249 248 248 245 243 243 244 246 249 250 252 253 255 256 258 255 255 254 253 253 254 254 253 252 251
310 300 294 292 290 288 285 280 273 270 263 258 259 262 260 257 252 249 248 249 247 248 248 245 246 248 250 252 253 254 256 259 256 256 256 255 255 253 252 252 251 252 252
316 307 301 295 291 290 287 285 277 268 263 259 262 262 261 258 256 254 251 251 252 252 251 248 249 250 250 251 253 254 257 256 257 255 255 258 255 254 254 251 251 252 250
318 314 311 304 295 290 289 289 283 271 267 264 263 260 258 258 254 254 254 253 252 250 250 252 255 255 254 253 254 254 255 257 255 254 255 257 256 255 255 254 252 250 250
321 319 316 310 304 298 290 288 279 274 271 268 264 262 259 260 258 258 259 256 254 252 251 254 256 255 255 255 256 254 254 256 254 255 253 254 256 256 255 256 253 249 249
321 320 317 314 308 305 297 291 281 278 277 271 268 264 261 259 258 259 259 257 254 252 251 253 255 255 255 255 255 255 257 260 256 253 252 254 255 255 254 255 252 250 250
322 318 314 314 314 311 304 295 284 280 276 273 271 269 266 262 260 259 258 256 256 256 253 254 254 253 253 253 253 254 256 257 255 254 253 253 254 253 253 255 252 251 252
321 319 317 316 313 311 307 301 288 283 277 277 276 275 272 268 263 260 258 256 256 256 256 255 256 254 255 254 254 254 255 256 255 255 255 254 254 253 252 253 254 253 252
317 316 315 313 311 311 309 305 297 288 281 279 280 279 275 272 266 262 261 258 257 258 258 257 258 258 256 256 253 253 255 256 256 255 256 256 256 254 253 252 254 255 254
315 314 312 311 310 309 307 303 300 293 289 283 282 285 279 273 269 266 264 262 260 260 261 259 258 259 259 256 255 253 255 255 255 257 257 258 257 256 254 253 253 254 255
316 315 312 309 306 306 307 305 302 297 289 284 284 283 280 277 273 268 268 266 265 263 262 262 260 259 259 255 256 256 255 255 256 258 258 258 258 258 257 257 255 255 256
320 318 316 313 308 306 305 305 307 304 297 290 283 280 279 278 275 269 268 269 265 263 265 265 264 264 262 257 258 259 258 258 260 258 259 260 260 261 261 260 257 257 256
318 318 316 313 311 307 305 305 305 305 303 296 288 281 278 277 275 272 271 271 268 265 264 265 264 263 264 261 261 260 258 260 262 260 260 260 260 261 262 260 259 258 258
315 314 313 311 310 309 307 307 308 304 302 298 294 289 281 275 272 270 272 275 272 268 266 265 265 264 262 262 262 262 261 262 264 263 262 262 262 262 263 261 261 260 259
311 309 309 309 308 308 307 308 307 306 303 301 299 293 287 281 275 275 275 277 275 270 268 268 267 266 265 265 264 263 262 262 264 263 263 263 264 264 263 263 262 262 261
310 309 307 306 307 309 308 307 304 304 301 300 299 295 290 285 279 276 276 277 276 273 271 271 269 269 267 265 265 266 265 264 264 263 263 262 262 264 266 266 264 263 262
311 311 308 307 308 310 310 306 304 303 302 300 298 296 292 287 283 278 275 276 276 273 272 272 271 270 269 269 268 269 268 267 266 264 263 263 263 265 266 265 264 263 264
312 311 311 309 309 309 309 307 304 302 301 299 297 297 294 290 287 283 280 277 275 273 272 271 271 270 270 271 269 270 270 268 267 266 266 266 266 265 265 265 264 265 264
317 313 309 307 307 306 304 304 301 300 300 298 297 297 296 293 289 285 282 280 278 275 273 271 270 271 271 272 270 269 268 269 268 267 267 268 268 267 266 265 266 266 266
317 313 309 307 306 305 303 301 300 300 300 298 297 296 296 294 292 288 284 281 279 278 276 274 271 271 271 270 271 270 268 268 268 268 268 269 269 268 266 266 266 265 264
316 314 311 310 309 307 306 305 303 300 299 297 295 295 296 296 293 290 286 283 282 279 276 275 274 274 273 272 272 271 269 269 268 268 270 269 268 267 266 266 265 264 263
313 313 311 309 309 308 308 306 303 299 296 295 295 294 295 295 294 291 287 284 283 281 280 278 277 277 277 275 274 273 273 273 272 272 272 271 269 268 267 267 266 265 264
Height
5878 5878 5878 5878 5877 5877 5876 5876 5876 5876 5876 5876 5876 5876 5876 5877 5877 5877 5878 5878 5878 5879 5880 5880 5881 5881 5882 5882 5882 5882 5883 5883 5883 5883 5883 5884 5884 5884 5885 5885 5885 5885 5886
5877 5877 5876 5876 5875 5875 5874 5874 5874 5874 5873 5873 5873 5873 5874 5874 5875 5875 5875 5876 5876 5876 5877 5878 5878 5879 5879 5880 5880 5880 5880 5881 5881 5881 5881 5881 5882 5882 5882 5882 5883 5883 5883
5875 5875 5874 5874 5873 5873 5872 5871 5871 5871 5871 5871 5871 5871 5871 5872 5872 5872 5873 5873 5874 5874 5875 5875 5876 5876 5877 5877 5877 5878 5878 5878 5878 5878 5878 5879 5879 5879 5879 5880 5880 5880 5881
5874 5873 5872 5872 5871 5870 5870 5869 5868 5868 5868 5868 5868 5868 5868 5869 5869 5869 5870 5870 5871 5871 5872 5872 5873 5873 5874 5874 5875 5875 5875 5875 5875 5875 5875 5876 5876 5876 5877 5877 5877 5878 5878
5872 5871 5870 5869 5868 5868 5867 5866 5866 5865 5864 5864 5864 5865 5865 5865 5866 5866 5866 5867 5867 5868 5868 5869 5869 5870 5871 5871 5872 5872 5872 5872 5871 5872 5872 5873 5873 5873 5874 5874 5875 5875 5875
5870 5869 5868 5867 5866 5865 5864 5863 5863 5861 5861 5861 5861 5861 5862 5862 5862 5862 5863 5863 5864 5864 5865 5865 5866 5866 5867 5868 5868 5868 5868 5868 5868 5868 5869 5869 5870 5870 5870 5871 5871 5872 5872
5868 5867 5866 5865 5863 5862 5861 5860 5859 5859 5858 5858 5858 5858 5858 5858 5858 5859 5859 5859 5860 5861 5861 5861 5862 5862 5863 5864 5864 5865 5865 5865 5865 5865 5865 5866 5866 5867 5867 5867 5868 5869 5869
5866 5865 5863 5862 5861 5860 5858 5857 5856 5855 5855 5855 5855 5855 5855 5856 5855 5855 5855 5855 5856 5856 5857 5857 5858 5858 5859 5860 5860 5861 5861 5861 5861 5861 5862 5862 5862 5863 5863 5864 5864 5865 5865
5864 5863 5861 5860 5858 5857 5855 5854 5853 5852 5852 5851 5851 5852 5852 5852 5852 5852 5851 5852 5852 5852 5853 5853 5854 5854 5855 5855 5856 5856 5856 5856 5857 5857 5858 5858 5858 5859 5859 5860 5860 5861 5861
5862 5860 5858 5857 5855 5853 5852 5850 5849 5848 5848 5848 5848 5848 5848 5848 5848 5848 5848 5848 5848 5848 5848 5849 5849 5849 5850 5850 5851 5851 5852 5852 5852 5853 5853 5854 5854 5855 5855 5855 5856 5856 5857
5859 5857 5856 5854 5852 5850 5848 5847 5846 5845 5844 5844 5843 5843 5843 5843 5843 5844 5843 5843 5843 5843 5844 5844 5844 5844 5845 5845 5846 5846 5847 5847 5847 5848 5848 5849 5849 5850 5850 5851 5851 5852 5852
5857 5855 5853 5851 5849 5847 5845 5843 5842 5841 5840 5840 5839 5839 5839 5839 5838 5839 5839 5839 5838 5839 5839 5839 5839 5838 5839 5840 5840 5841 5841 5842 5842 5843 5843 5844 5844 5845 5845 5846 5846 5847 5847
5854 5852 5850 5848 5846 5844 5842 5840 5838 5837 5836 5835 5835 5835 5834 5833 5833 5833 5834 5834 5833 5834 5834 5834 5834 5834 5834 5834 5835 5835 5836 5836 5837 5837 5838 5838 5839 5839 5839 5840 5841 5841 5842
5851 5849 5847 5845 5843 5841 5839 5837 5835 5833 5832 5831 5830 5830 5829 5829 5828 5828 5828 5829 5829 5829 5829 5829 5829 5829 5829 5829 5829 5830 5830 5830 5831 5831 5832 5832 5833 5833 5833 5834 5835 5835 5836
5847 5845 5843 5841 5839 5837 5835 5833 5831 5829 5828 5827 5826 5825 5824 5823 5823 5823 5823 5823 5824 5824 5823 5823 5823 5823 5823 5824 5824 5823 5824 5823 5824 5825 5826 5826 5826 5826 5827 5827 5828 5829 5829
5844 5842 5839 5837 5835 5834 5832 5830 5827 5825 5824 5822 5821 5820 5819 5818 5818 5818 5818 5818 5818 5818 5818 5817 5817 5818 5818 5818 5818 5817 5818 5818 5818 5819 5819 5820 5820 5820 5821 5821 5821 5822 5822
5841 5838 5836 5834 5832 5830 5828 5826 5824 5822 5820 5818 5816 5815 5814 5814 5813 5813 5813 5812 5812 5812 5812 5811 5811 5812 5812 5812 5811 5811 5811 5812 5812 5812 5812 5813 5813 5813 5814 5814 5814 5815 5815
5837 5835 5833 5830 5828 5826 5823 5822 5820 5818 5816 5814 5812 5811 5810 5809 5808 5808 5807 5807 5806 5806 5806 5806 5805 5805 5805 5805 5805 5805 5805 5805 5805 5805 5805 5806 5806 5807 5806 5806 5807 5807 5807
5833 5831 5829 5827 5824 5822 5819 5817 5815 5814 5812 5810 5808 5806 5805 5804 5804 5803 5802 5801 5800 5800 5800 5800 5799 5799 5799 5799 5798 5798 5798 5798 5798 5798 5798 5799 5799 5799 5799 5800 5799 5799 5799
5829 5827 5825 5823 5820 5818 5815 5813 5811 5809 5807 5805 5803 5802 5800 5799 5798 5797 5796 5796 5794 5794 5793 5793 5793 5792 5792 5792 5791 5791 5791 5791 5791 5791 5791 5792 5792 5792 5792 5792 5792 5791 5792
5826 5823 5821 5818 5816 5814 5811 5809 5807 5805 5803 5801 5799 5797 5795 5793 5792 5791 5790 5789 5788 5787 5787 5786 5786 5786 5785 5785 5785 5784 5784 5784 5784 5784 5784 5784 5785 5785 5784 5784 5784 5783 5784
5822 5819 5816 5814 5812 5809 5807 5804 5802 5800 5798 5796 5794 5791 5789 5787 5786 5785 5784 5783 5782 5781 5780 5779 5779 5778 5778 5778 5777 5777 5777 5777 5777 5777 5777 5776 5776 5777 5776 5776 5776 5775 5775
5817 5814 5812 5809 5807 5805 5802 5799 5797 5795 5792 5791 5788 5786 5784 5781 5779 5778 5777 5776 5775 5774 5773 5773 5772 5771 5771 5770 5770 5769 5769 5769 5769 5769 5769 5769 5768 5768 5768 5768 5768 5767 5767
5813 5810 5807 5805 5802 5799 5796 5794 5791 5789 5787 5785 5782 5780 5778 5775 5773 5771 5770 5769 5768 5767 5766 5765 5765 5764 5763 5763 5762 5762 5761 5761 5761 5760 5761 5761 5760 5760 5760 5759 5759 5759 5759
5807 5805 5802 5800 5797 5794 5791 5788 5786 5783 5781 5778 5776 5774 5772 5769 5767 5765 5764 5762 5761 5760 5759 5758 5757 5756 5756 5755 5755 5754 5754 5753 5753 5753 5752 5752 5752 5751 5751 5751 5750 5750 5750
5802 5799 5797 5794 5791 5788 5785 5782 5779 5777 5774 5772 5770 5768 5765 5763 5761 5759 5757 5756 5755 5753 5752 5751 5750 5749 5748 5748 5747 5747 5746 5746 5745 5745 5744 5744 5743 5743 5743 5742 5742 5741 5741